{"data":{"norad_id":60474,"intl_designator":"2024-149G","name":"ROCK","alt_names":[],"object_type":"PAYLOAD","status":"ACTIVE","operator":null,"country":"US","launch_date":"2024-08-16","launch_site_code":"AFWTR","launch_vehicle":null,"mission":null,"orbit_class":"UNKNOWN","rcs_meters":null,"size_class":null,"mass_kg":null,"dimensions":null,"purposes":[],"wikipedia_slug":null,"has_3d_model":false,"image_url":null,"decayed_at":null,"tle_current":{"epoch":"2026-05-24T18:42:55.483776Z","epoch_age_seconds":90035,"freshness":"FRESH","line1":"1 60474U 24149G   26144.77980884  .00013143  00000+0  34329-3 0  9994","line2":"2 60474  97.3771 227.9951 0001199  38.3302 321.8028 15.38915226 98666","mean_motion":15.38915226,"eccentricity":0.0001199,"inclination_deg":97.3771,"raan_deg":227.9951,"arg_perigee_deg":38.3302,"mean_anomaly_deg":321.8028,"bstar":0.00034329,"rev_number":9866,"period_min":93.572405787608,"perigee_km":448.49724885491,"apogee_km":450.13447205085,"semimajor_km":6827.4528604529,"source":"CELESTRAK","updated_at":"2026-05-25T13:38:02.088888Z"}}}